SCP
0 0 0 0 0 0 0 0 0 0 0 0 0 0 0 0 0 0 0 0 0 0 0 0 0 0 0 0 0 0 0 0 0 0 0 0 0 0 0 0 0 0 0 0
0 0 0 0 0 0 0 0 0 0 0 0 0 0 0 0 0 0 0 0 0 0 0 0 0 0 0 0 0 0 0 0 0 0 0 0 0 0 0 0 0 0 0 0
0 0 0 0 0 0 0 0 0 0 0 0 0 0 0 0 0 0 0 0 0 0 0 0 0 0 0 0 0 0 0 0 0 0 0 0 0 0 0 0 0 0 0 0
0 0 0 0 0 0 0 0 0 0 0 0 0 0 0 0 0 0 0 0 0 0 0 0 0 0 0 0 0 0 0 0 0 0 0 0 0 0 0 0 0 0 0 0
0 0 0 0 0 0 0 0 0 0 0 0 0 0 0 0 0 0 0 0 0 0 0 0 0 0 0 0 0 0 0 0 0 0 0 0 0 0 0 0 0 0 0 0
0 0 0 0 0 0 0 0 0 0 0 0 0 0 0 0 0 0 0 0 0 0 0 0 0 0 0 0 0 0 0 0 0 0 0 0 0 0 0 0 0 0 0 0
0 0 0 0 0 0 0 0 0 0 0 0 0 0 0 0 0 0 0 0 0 0 0 0 0 0 0 0 0 0 0 0 0 0 0 0 0 0 0 0 0 0 0 0
0 0 0 0 0 0 0 0 0 0 0 0 0 0 0 0 0 0 0 0 0 0 0 0 0 0 0 0 0 0 0 0 0 0 0 0 0 0 0 0 0 0 0 0
0 0 0 0 0 0 0 0 0 0 0 0 0 0 0 0 0 0 0 0 0 0 0 0 0 0 0 0 0 0 0 0 0 0 0 0 0 0 0 0 0 0 0 0
0 0 0 0 0 0 0 0 0 0 0 0 0 0 0 0 0 0 0 0 0 0 0 0 0 0 0 0 0 0 0 0 0 0 0 0 0 0 0 0 0 0 0 0
0 0 0 0 0 0 0 0 0 0 0 0 0 0 0 0 0 0 0 0 0 0 0 0 0 0 0 0 0 0 0 0 0 0 0 0 0 0 0 0 0 0 0 0
0 0 0 0 0 0 0 0 0 0 0 0 0 0 0 0 0 0 0 0 0 0 0 0 0 0 0 0 0 0 0 0 0 0 0 0 0 0 0 0 0 0 0 0
0 0 0 0 0 0 0 0 0 0 0 0 0 0 0 0 0 0 0 0 0 0 -0 0 0 0 0 0 0 0 0 0 0 0 0 0 0 0 0 0 0 0 0 0
0 0 0 0 0 0 0 0 0 0 0 0 0 0 0 0 0 0 0 0 0 0 -0 0 0 0 0 0 0 0 0 0 0 0 0 0 0 0 0 0 0 0 0 0
0 0 0 0 0 0 0 0 0 0 0 0 0 0 0 0 0 0 0 0 0 0 0 0 0 0 0 0 0 0 0 0 0 0 0 0 0 0 0 0 0 0 0 0
0 0 0 0 0 0 0 0 0 0 0 0 0 0 0 0 0 0 0 0 0 0 0 0 0 0 0 0 0 0 0 0 0 0 0 0 0 0 0 0 0 0 0 0
0 0 0 0 0 0 0 0 0 0 0 0 0 0 0 0 0 0 0 0 0 0 0 0 0 0 0 0 0 0 0 0 0 0 0 0 0 0 0 0 0 0 0 0
0 0 0 0 0 0 0 0 0 0 0 0 0 0 0 0 0 0 0 0 0 0 0 0 0 0 0 0 0 0 0 0 0 0 0 0 0 0 0 0 0 0 0 0
0 0 0 0 0 0 0 0 0 0 0 0 0 0 0 0 0 0 0 0 0 0 0 0 0 0 0 0 0 0 0 0 0 0 0 0 0 0 0 0 0 0 0 0
0 0 0 0 0 0 0 0 0 0 0 0 -0 -0 -0 0 -0 -0 0 0 0 0 0 0 0 0 0 0 0 0 0 0 0 0 0 0 0 0 0 0 0 0 -0 0
0 0 0 0 0 0 0 0 0 0 0 0 0 0 -0 0 -0 -0 0 0 0 0 0 0 0 0 0 0 0 0 0 0 0 0 0 0 0 0 0 0 0 0 0 0
0 0 0 0 0 0 0 0 0 0 0 0 0 0 0 0 0 0 0 0 0 0 0 0 0 0 0 0 0 0 0 0 0 0 0 0 0 0 0 0 0 0 0 0
0 0 0 0 0 0 0 0 0 0 0 0 0 0 0 0 0 0 0 0 0 0 0 0 0 0 0 0 0 0 0 0 0 0 0 0 0 0 0 0 0 0 0 0
-0 -0 -0 0 0 0 0 0 0 0 0 0 0 0 0 0 0 0 0 0 0 0 0 0 0 0 0 0 0 0 0 0 0 0 0 0 0 0 0 0 0 0 0 0
-0 -0 -0 -0 0 0 0 0 0 0 0 0 0 0 0 0 0 0 0 0 0 0 0 0 0 0 0 0 0 0 0 0 0 0 0 0 0 0 0 0 0 0 0 0
-0 -0 -0 -0 -0 -0 0 0 0 0 0 0 0 0 0 0 0 0 0 0 0 0 0 0 0 0 0 0 0 0 0 0 0 0 0 0 0 0 0 0 0 0 0 0
Wind_Speed
2 3 3 4 4 4 1 2 5 6 5 4 6 8 11 7 3 5 5 6 6 4 1 2 2 1 2 4 7 9 9 8 7 5 5 4 4 3 3 3 5 6 6 7
2 2 5 7 5 4 2 2 4 7 6 4 6 9 8 5 5 6 7 7 7 4 1 1 2 1 1 2 5 6 7 7 7 5 4 3 3 2 3 3 4 6 7 7
4 3 6 7 6 5 3 3 4 7 8 5 4 7 6 5 3 3 3 5 6 6 5 3 1 1 1 2 4 5 5 6 5 5 3 3 2 2 2 2 3 5 7 8
3 3 4 5 6 6 4 7 7 8 5 5 2 6 8 6 5 3 3 5 6 5 4 4 3 3 3 3 2 3 4 5 5 6 5 6 5 4 4 3 3 4 6 8
4 3 4 5 6 5 6 4 5 6 5 4 3 3 9 4 5 5 5 5 6 6 6 5 5 4 3 2 3 3 4 5 5 6 7 6 4 3 2 3 5 4 5 6
7 4 6 7 5 6 4 1 3 3 2 3 5 5 8 5 7 4 5 6 6 6 6 5 4 3 3 2 3 4 4 4 5 6 6 6 6 5 5 4 5 4 4 5
6 5 5 5 3 3 3 3 3 4 2 6 3 3 9 7 7 6 8 9 7 6 6 6 7 6 6 5 5 4 5 4 5 5 5 6 6 7 7 6 6 6 5 4
3 7 4 4 8 7 6 9 8 5 5 5 2 5 8 7 5 4 5 6 6 7 7 8 8 8 7 7 6 6 6 5 5 5 5 5 6 4 4 5 5 6 5 6
4 6 5 3 5 7 4 6 7 6 3 2 5 6 8 3 1 2 3 4 6 8 8 8 7 7 8 8 8 8 7 6 5 5 5 5 5 5 5 5 4 4 4 5
3 5 8 6 2 1 4 5 5 6 5 4 5 4 5 5 4 3 3 6 8 7 7 6 5 7 8 8 7 7 7 7 6 5 5 5 5 6 6 5 5 5 5 6
1 2 7 5 2 0 1 3 4 3 3 4 3 7 6 6 5 6 8 7 8 7 8 7 6 6 6 6 7 7 7 6 5 6 5 5 5 5 6 5 6 6 5 6
3 3 4 6 4 1 1 3 4 2 1 1 2 9 6 4 5 6 7 7 6 7 7 6 6 6 6 7 7 8 7 7 6 6 6 6 5 5 6 6 6 6 6 5
3 3 3 7 6 4 3 2 3 5 3 3 4 9 5 4 5 5 7 7 6 6 6 5 6 7 8 8 7 7 7 7 6 6 6 6 6 6 7 6 6 5 5 5
3 4 5 5 5 3 3 2 4 5 4 5 9 10 8 9 9 8 7 7 6 6 6 6 7 8 8 7 7 7 6 6 6 6 6 7 7 8 7 6 6 6 5 5
1 3 4 6 7 4 5 6 5 8 8 9 9 11 11 10 10 8 7 7 6 7 7 7 8 7 7 6 6 6 6 5 6 6 7 8 7 6 6 6 6 6 5 6
3 3 2 4 5 4 6 9 9 9 8 9 10 13 12 11 8 9 9 8 8 9 8 6 6 7 7 6 6 5 6 6 6 7 7 6 6 6 6 6 6 6 5 5
3 2 1 4 5 5 6 6 4 4 6 7 10 13 10 8 9 10 9 8 9 9 7 5 5 6 5 5 5 6 6 5 6 7 6 6 6 7 7 6 6 6 6 5
5 3 2 2 2 4 6 2 2 5 8 6 10 14 11 10 9 7 6 6 6 4 2 2 4 5 3 2 2 3 4 5 6 6 6 6 6 6 6 6 6 6 5 5
6 6 4 3 3 6 6 5 4 4 7 7 15 17 10 4 2 4 2 1 1 2 4 5 5 5 5 4 3 3 2 2 3 5 6 6 6 6 6 7 6 5 5 5
3 3 4 3 3 4 3 11 10 1 6 16 21 19 11 1 1 5 1 5 7 7 6 6 6 7 7 5 5 6 4 3 0 3 4 4 5 6 7 7 5 4 4 5
3 1 2 3 4 2 7 13 8 8 10 20 19 17 9 4 5 3 3 5 7 7 6 6 7 6 5 4 6 7 5 4 2 2 1 1 3 5 5 5 5 5 5 5
4 3 2 1 3 1 11 10 7 5 10 14 16 15 12 9 5 2 4 6 7 6 5 5 6 5 4 4 5 5 3 2 3 3 4 3 1 1 3 4 4 5 6 5
5 5 4 5 3 5 7 8 7 6 11 13 15 16 13 9 4 1 4 5 5 5 5 4 5 5 3 2 3 3 1 2 3 4 4 4 3 3 2 3 4 4 4 4
4 3 3 5 6 10 11 8 8 10 12 14 13 13 11 10 5 2 4 5 5 4 4 4 5 4 2 1 0 1 0 2 3 3 3 3 3 3 3 2 2 3 3 4
5 4 4 6 7 9 6 9 13 15 16 16 17 14 11 10 6 4 6 6 5 5 4 4 5 4 4 3 2 2 2 2 2 2 2 3 3 3 3 3 2 1 1 3
3 3 4 6 6 8 14 15 14 15 16 16 18 21 18 10 7 5 6 6 6 5 5 4 4 4 3 3 3 3 3 3 2 1 1 1 2 2 3 4 4 8 5 4
Wind_Direction
82 87 145 157 135 126 24 317 297 282 282 277 258 263 273 286 257 236 220 206 205 208 288 9 358 339 176 183 188 190 184 179 166 165 171 174 188 183 177 180 173 174 178 182
83 204 185 160 153 134 138 302 299 295 288 265 266 269 271 273 248 233 218 199 185 181 173 38 30 35 144 185 187 183 181 172 174 178 166 155 155 171 174 169 167 175 179 185
202 217 174 174 174 165 190 216 251 271 297 306 294 295 293 290 286 276 216 178 178 181 182 185 183 192 186 197 191 185 175 167 166 154 131 113 109 103 143 167 170 182 182 184
239 233 195 200 203 181 222 227 237 255 265 277 298 287 283 282 299 273 194 169 182 187 181 192 205 211 216 216 194 177 165 160 156 154 162 167 174 185 193 172 164 170 181 183
253 212 188 212 217 199 224 236 231 248 242 264 275 250 283 301 274 252 211 200 199 196 192 205 213 217 219 203 182 173 163 162 159 163 169 171 171 169 151 150 156 161 168 174
248 231 204 210 216 207 221 69 65 53 87 262 240 202 278 252 236 243 205 210 208 201 203 214 217 208 210 193 179 169 173 177 168 169 170 173 168 161 159 165 163 160 159 162
309 283 232 189 207 246 174 121 3 338 1 253 249 203 252 259 250 223 198 207 207 201 199 204 204 203 204 200 196 186 186 192 181 178 180 180 176 173 177 175 174 166 166 167
295 296 269 190 191 211 204 168 175 207 225 275 282 233 258 275 281 217 191 193 196 205 208 209 206 200 200 201 198 194 197 200 189 189 190 183 178 177 184 183 178 180 179 169
231 272 295 254 217 178 179 202 184 150 172 257 282 287 301 306 22 125 159 185 211 219 221 220 207 196 198 200 202 200 198 200 196 193 186 185 184 183 185 183 179 176 164 160
209 270 290 300 64 90 159 148 107 136 166 234 276 278 255 256 237 224 219 226 234 236 240 239 216 201 200 201 200 197 199 202 198 189 186 187 188 187 180 173 177 172 168 164
116 236 304 339 27 328 84 93 94 109 141 163 249 270 237 243 243 234 236 235 238 241 242 240 226 207 195 187 188 195 199 198 195 191 187 186 188 185 180 183 186 177 175 172
120 127 284 286 290 312 87 115 120 132 268 177 211 267 272 265 265 253 258 259 252 249 248 237 221 201 189 187 189 195 196 196 197 187 183 188 186 180 185 192 191 183 182 181
136 113 349 336 345 7 54 103 133 129 129 187 214 263 286 303 296 266 256 259 256 263 264 241 212 201 198 193 189 193 195 197 190 179 183 187 188 189 195 195 188 183 180 178
116 153 180 219 253 282 295 236 168 144 173 218 227 250 284 291 287 282 269 263 261 261 259 235 217 212 203 194 187 188 194 189 181 180 187 196 199 199 199 192 184 183 181 177
64 226 229 243 256 249 245 255 222 200 205 215 240 245 254 253 256 263 267 269 268 266 256 235 218 211 201 191 186 186 191 185 180 184 197 208 205 197 191 187 183 180 179 185
343 276 276 284 284 288 264 256 248 236 229 234 253 263 254 254 253 258 260 260 262 262 259 246 215 198 198 194 188 189 198 189 180 195 209 206 194 192 194 190 181 178 180 180
276 262 291 280 306 335 286 262 243 249 244 231 258 267 272 267 254 248 251 251 252 264 270 240 201 185 184 187 187 201 207 183 186 205 212 202 194 197 199 188 179 185 186 182
213 196 208 261 340 266 256 288 276 285 277 275 282 285 280 259 257 254 242 240 257 272 269 151 125 114 110 126 174 201 195 189 197 207 214 207 199 203 195 186 190 187 179 184
193 176 178 177 224 274 309 351 339 313 299 1 341 323 306 286 307 299 254 200 175 100 96 93 97 100 88 75 82 112 138 186 204 218 220 212 203 203 194 197 197 186 178 182
96 145 156 169 201 245 344 330 318 291 316 355 345 333 321 354 356 287 38 96 95 93 96 99 94 87 76 60 72 78 71 72 314 262 243 219 201 201 205 203 189 178 180 184
359 47 182 198 224 269 1 333 5 51 323 326 329 328 324 267 240 278 96 96 104 104 102 98 89 81 76 77 81 76 65 47 4 355 343 210 197 201 199 186 175 172 171 167
339 342 325 260 218 45 9 3 23 329 311 322 327 336 330 310 319 60 102 115 120 115 106 99 95 87 74 77 88 83 60 23 33 49 52 50 75 173 168 165 167 163 160 162
19 21 338 322 316 360 343 317 310 330 324 324 325 328 334 327 324 91 127 137 135 129 121 109 114 106 80 61 95 111 67 30 48 50 44 39 45 53 104 145 154 154 158 157
331 348 305 294 297 318 313 313 329 329 321 315 317 319 333 329 311 178 161 164 155 144 142 133 129 131 151 177 145 168 107 61 61 50 36 33 42 47 59 90 134 152 163 158
278 291 283 273 291 311 306 319 322 321 322 324 326 327 330 330 306 212 187 182 174 163 157 151 153 165 189 198 204 194 157 119 84 49 31 35 42 57 64 65 64 121 169 175
271 280 290 283 297 295 297 306 311 314 320 324 326 326 329 326 295 232 198 186 176 170 160 159 169 185 199 195 199 187 164 152 136 91 43 44 58 74 86 92 77 55 61 85